TimeCDT,TemperatureF,Dew PointF,Humidity,Sea Level PressureIn,VisibilityMPH,Wind Direction,Wind SpeedMPH,Gust SpeedMPH,PrecipitationIn,Events,Conditions,WindDirDegrees,DateUTC
12:53 AM,53.1,44.1,71,29.73,10.0,ESE,3.5,-,N/A,,Clear,120,2012-10-21 05:53:00
1:53 AM,53.1,45.0,74,29.73,10.0,Calm,Calm,-,N/A,,Clear,0,2012-10-21 06:53:00
2:53 AM,51.1,44.1,77,29.74,10.0,Calm,Calm,-,N/A,,Clear,0,2012-10-21 07:53:00
3:53 AM,50.0,44.1,80,29.74,10.0,ESE,3.5,-,N/A,,Clear,110,2012-10-21 08:53:00
4:53 AM,51.1,45.0,80,29.74,10.0,Calm,Calm,-,N/A,,Clear,0,2012-10-21 09:53:00
5:53 AM,50.0,45.0,83,29.75,10.0,Calm,Calm,-,N/A,,Clear,0,2012-10-21 10:53:00
6:53 AM,48.9,45.0,86,29.76,10.0,ESE,4.6,-,N/A,,Clear,110,2012-10-21 11:53:00
7:53 AM,50.0,46.0,86,29.77,10.0,East,4.6,-,N/A,,Clear,100,2012-10-21 12:53:00
8:53 AM,57.0,51.1,81,29.78,10.0,East,6.9,-,N/A,,Clear,90,2012-10-21 13:53:00
9:53 AM,66.9,57.0,70,29.78,10.0,SSE,9.2,-,N/A,,Clear,150,2012-10-21 14:53:00
10:53 AM,73.0,61.0,66,29.77,10.0,South,6.9,-,N/A,,Clear,180,2012-10-21 15:53:00
11:53 AM,75.0,62.1,64,29.77,10.0,SSE,12.7,-,N/A,,Clear,150,2012-10-21 16:53:00
12:40 PM,75.2,62.6,65,29.78,10.0,SSE,13.8,-,N/A,,Mostly Cloudy,160,2012-10-21 17:40:00
12:53 PM,73.9,63.0,68,29.76,10.0,SSE,17.3,-,N/A,,Overcast,150,2012-10-21 17:53:00
1:53 PM,73.0,64.0,73,29.75,10.0,South,11.5,-,N/A,,Overcast,170,2012-10-21 18:53:00
2:53 PM,75.9,64.9,69,29.72,10.0,SE,12.7,-,N/A,,Overcast,140,2012-10-21 19:53:00
3:29 PM,78.8,64.4,61,29.72,10.0,SE,16.1,21.9,N/A,,Mostly Cloudy,130,2012-10-21 20:29:00
3:53 PM,79.0,64.9,62,29.70,10.0,SSE,13.8,-,N/A,,Mostly Cloudy,150,2012-10-21 20:53:00
4:53 PM,78.1,64.9,64,29.70,10.0,SE,18.4,-,N/A,,Overcast,130,2012-10-21 21:53:00
5:43 PM,77.0,66.2,69,29.72,10.0,SE,15.0,-,N/A,,Overcast,140,2012-10-21 22:43:00
5:53 PM,77.0,66.0,69,29.70,10.0,SE,12.7,-,N/A,,Overcast,140,2012-10-21 22:53:00
6:53 PM,75.9,66.0,71,29.71,10.0,SE,12.7,-,N/A,,Overcast,140,2012-10-21 23:53:00
7:53 PM,73.9,66.0,76,29.73,10.0,SE,9.2,-,N/A,,Mostly Cloudy,130,2012-10-22 00:53:00
8:53 PM,72.0,66.0,81,29.73,10.0,SE,8.1,-,N/A,,Clear,130,2012-10-22 01:53:00
9:53 PM,71.1,64.9,81,29.74,9.0,ESE,6.9,-,N/A,,Clear,110,2012-10-22 02:53:00
10:53 PM,70.0,64.9,84,29.74,9.0,ESE,8.1,-,N/A,,Clear,120,2012-10-22 03:53:00
11:53 PM,72.0,66.0,81,29.73,10.0,SE,8.1,-,N/A,,Scattered Clouds,140,2012-10-22 04:53:00